Change the Weather History Date:

Sunday, October 13, 2013

  Actual Average Record
Temperature  
Mean Temperature 42 °F -  
Max Temperature 54 °F 53 °F 80 °F (1956)
Min Temperature 31 °F 35 °F 19 °F (1965)
Degree Days  
Heating Degree Days 22    
Moisture  
Dew Point 33 °F    
Average Humidity 74    
Maximum Humidity 95    
Minimum Humidity 41    
Precipitation  
Precipitation 0.00 in - - ()
Sea Level Pressure  
Sea Level Pressure 30.31 in    
Wind  
Wind Speed 6 mph (WSW)    
Max Wind Speed 14 mph    
Max Gust Speed 18 mph    
Visibility 10 miles    
Events      
Averages and records for this station are not official NWS values.
T = Trace of Precipitation, MM = Missing Value Source: NWS Daily Summary

Daily Weather History Graph

Daily Weather History Graph

Search for Another Location

Airport or City:

Trip Planner

Search our weather history database for the weather conditions in past years. The results will help you decide how hot, cold, wet, or windy it might be!

Date:

Astronomy

Oct. 13, 2013 Rise Set
Actual Time 7:35 AM CDT 6:35 PM CDT
Civil Twilight 7:05 AM CDT 7:05 PM CDT
Nautical Twilight 6:29 AM CDT 7:41 PM CDT
Astronomical Twilight 5:53 AM CDT 8:17 PM CDT
Moon 3:46 PM CDT (10/13) 1:24 AM CDT (10/13)
Length of Visible Light 12h 00m
Length of Day
10h 59m
Waxing Gibbous, 69% of the Moon is Illuminated
Oct 13
Waxing Gibbous
Oct 18
Full
Oct 26
Last Quarter
Nov 3
New
Nov 9
First Quarter

Hourly Weather History & Observations

Time (CDT) Temp. Windchill Dew Point Humidity Pressure Visibility Wind Dir Wind Speed Gust Speed Precip Events Conditions
12:12 AM 39.4 °F 33.8 °F 36.5 °F 89% 30.14 in 10.0 mi West 8.1 mph - N/A   Scattered Clouds
12:32 AM 39.0 °F 34.0 °F 36.1 °F 89% 30.14 in 10.0 mi West 6.9 mph - N/A   Scattered Clouds
12:52 AM 36.3 °F 32.5 °F 34.2 °F 92% 30.15 in 10.0 mi WNW 4.6 mph - N/A   Clear
1:12 AM 34.3 °F 28.4 °F 32.7 °F 94% 30.16 in 10.0 mi WNW 6.9 mph - N/A   Clear
1:32 AM 36.9 °F 32.2 °F 34.7 °F 92% 30.17 in 10.0 mi WNW 5.8 mph - N/A   Clear
1:53 AM 36.7 °F 32.0 °F 34.2 °F 91% 30.18 in 10.0 mi WNW 5.8 mph - N/A   Clear
2:12 AM 34.3 °F 30.2 °F 32.7 °F 94% 30.19 in 10.0 mi WNW 4.6 mph - N/A   Clear
2:32 AM 36.5 °F 32.7 °F 33.8 °F 90% 30.19 in 10.0 mi West 4.6 mph - N/A   Clear
2:52 AM 36.7 °F 32.0 °F 33.8 °F 89% 30.21 in 10.0 mi WSW 5.8 mph - N/A   Clear
3:12 AM 36.9 °F 33.1 °F 33.8 °F 89% 30.21 in 10.0 mi WSW 4.6 mph - N/A   Clear
3:32 AM 37.2 °F 32.6 °F 34.2 °F 89% 30.21 in 10.0 mi SW 5.8 mph - N/A   Clear
3:52 AM 36.5 °F 31.8 °F 34.3 °F 92% 30.22 in 10.0 mi SW 5.8 mph - N/A   Clear
4:13 AM 36.1 °F 33.5 °F 34.2 °F 93% 30.23 in 10.0 mi WSW 3.5 mph - N/A   Clear
4:32 AM 36.0 °F 31.1 °F 34.0 °F 93% 30.24 in 10.0 mi SW 5.8 mph - N/A   Clear
4:52 AM 35.6 °F 30.7 °F 34.3 °F 95% 30.24 in 10.0 mi SW 5.8 mph - N/A   Clear
5:12 AM 36.3 °F 32.5 °F 34.7 °F 94% 30.25 in 10.0 mi SW 4.6 mph - N/A   Clear
5:32 AM 36.1 °F 30.6 °F 34.3 °F 93% 30.26 in 10.0 mi WSW 6.9 mph - N/A   Clear
5:53 AM 36.0 °F 30.3 °F 34.3 °F 94% 30.26 in 10.0 mi WSW 6.9 mph - N/A   Clear
6:12 AM 36.0 °F 31.1 °F 34.0 °F 93% 30.26 in 10.0 mi WSW 5.8 mph - N/A   Clear
6:32 AM 35.1 °F 31.0 °F 33.6 °F 94% 30.27 in 10.0 mi SW 4.6 mph - N/A   Clear
6:53 AM 35.1 °F 32.2 °F 33.4 °F 94% 30.28 in 10.0 mi SW 3.5 mph - N/A   Clear
7:12 AM 34.7 °F 29.6 °F 33.4 °F 95% 30.29 in 10.0 mi SW 5.8 mph - N/A   Clear
7:32 AM 34.7 °F 29.6 °F 33.1 °F 94% 30.29 in 10.0 mi SW 5.8 mph - N/A   Clear
7:52 AM 35.1 °F 30.1 °F 32.9 °F 92% 30.30 in 10.0 mi SSW 5.8 mph - N/A   Clear
8:12 AM 35.1 °F 30.1 °F 33.1 °F 92% 30.31 in 10.0 mi SSW 5.8 mph - N/A   Clear
8:32 AM 36.3 °F 32.5 °F 33.8 °F 91% 30.32 in 10.0 mi SW 4.6 mph - N/A   Clear
8:52 AM 37.8 °F 33.3 °F 33.8 °F 86% 30.33 in 10.0 mi SW 5.8 mph - N/A   Clear
9:12 AM 39.2 °F 35.0 °F 34.0 °F 82% 30.33 in 10.0 mi SW 5.8 mph - N/A   Clear
9:32 AM 41.0 °F 37.1 °F 34.2 °F 77% 30.33 in 10.0 mi SW 5.8 mph - N/A   Clear
9:52 AM 42.8 °F 38.6 °F 35.2 °F 75% 30.34 in 10.0 mi SW 6.9 mph - N/A   Clear
10:12 AM 44.6 °F 40.2 °F 35.1 °F 69% 30.35 in 10.0 mi SW 8.1 mph - N/A   Clear
10:32 AM 45.7 °F 41.0 °F 36.1 °F 69% 30.35 in 10.0 mi WSW 9.2 mph - N/A   Clear
10:52 AM 47.1 °F - 36.1 °F 66% 30.36 in 10.0 mi West 8.1 mph - N/A   Clear
11:12 AM 48.9 °F - 36.3 °F 62% 30.36 in 10.0 mi WSW 10.4 mph - N/A   Clear
11:32 AM 50.2 °F - 36.0 °F 58% 30.36 in 10.0 mi WSW 10.4 mph - N/A   Clear
11:53 AM 50.9 °F - 34.2 °F 53% 30.36 in 10.0 mi West 11.5 mph - N/A   Clear
12:12 PM 51.3 °F - 34.0 °F 52% 30.36 in 10.0 mi West 13.8 mph - N/A   Clear
12:32 PM 50.9 °F - 32.0 °F 48% 30.37 in 10.0 mi West 13.8 mph 18.4 mph N/A   Scattered Clouds
12:52 PM 51.3 °F - 32.7 °F 49% 30.37 in 10.0 mi West 12.7 mph 16.1 mph N/A   Scattered Clouds
1:12 PM 52.3 °F - 32.0 °F 46% 30.36 in 10.0 mi West 9.2 mph - N/A   Scattered Clouds
1:32 PM 53.2 °F - 31.8 °F 44% 30.36 in 10.0 mi WNW 10.4 mph 18.4 mph N/A   Scattered Clouds
1:52 PM 52.5 °F - 30.9 °F 44% 30.36 in 10.0 mi WSW 13.8 mph - N/A   Scattered Clouds
2:12 PM 53.6 °F - 32.4 °F 44% 30.35 in 10.0 mi WSW 6.9 mph - N/A   Scattered Clouds
2:32 PM 53.8 °F - 31.6 °F 43% 30.35 in 10.0 mi NW 8.1 mph - N/A   Scattered Clouds
2:52 PM 54.0 °F - 30.9 °F 41% 30.35 in 10.0 mi West 8.1 mph - N/A   Scattered Clouds
3:12 PM 53.6 °F - 31.6 °F 43% 30.34 in 10.0 mi West 12.7 mph 17.3 mph N/A   Scattered Clouds
3:32 PM 54.7 °F - 31.6 °F 42% 30.34 in 10.0 mi West 10.4 mph - N/A   Clear
3:53 PM 54.5 °F - 32.7 °F 44% 30.33 in 10.0 mi West 9.2 mph - N/A   Clear
4:12 PM 53.8 °F - 32.0 °F 44% 30.33 in 10.0 mi West 6.9 mph - N/A   Clear
4:32 PM 53.8 °F - 32.4 °F 44% 30.33 in 10.0 mi WNW 8.1 mph - N/A   Clear
4:52 PM 53.6 °F - 32.0 °F 44% 30.33 in 10.0 mi WSW 6.9 mph - N/A   Scattered Clouds
5:12 PM 52.9 °F - 32.2 °F 45% 30.33 in 10.0 mi West 8.1 mph - N/A   Clear
5:32 PM 52.2 °F - 31.8 °F 46% 30.33 in 10.0 mi West 6.9 mph - N/A   Clear
5:52 PM 50.9 °F - 31.5 °F 47% 30.33 in 10.0 mi West 5.8 mph - N/A   Clear
6:12 PM 48.6 °F - 32.0 °F 53% 30.33 in 10.0 mi WNW 4.6 mph - N/A   Clear
6:32 PM 45.5 °F 44.2 °F 31.5 °F 58% 30.34 in 10.0 mi WNW 3.5 mph - N/A   Clear
6:52 PM 45.3 °F - 31.1 °F 58% 30.34 in 10.0 mi Calm Calm - N/A   Clear
7:12 PM 44.8 °F - 31.3 °F 59% 30.34 in 10.0 mi Calm Calm - N/A   Clear
7:32 PM 41.4 °F - 30.6 °F 65% 30.34 in 10.0 mi Calm Calm - N/A   Clear
7:52 PM 38.5 °F - 32.0 °F 78% 30.35 in 10.0 mi Calm Calm - N/A   Clear
8:12 PM 37.4 °F - 31.1 °F 78% 30.35 in 10.0 mi Calm Calm - N/A   Clear
8:32 PM 36.9 °F - 31.3 °F 80% 30.35 in 10.0 mi Calm Calm - N/A   Clear
8:52 PM 35.6 °F - 29.7 °F 79% 30.35 in 10.0 mi Calm Calm - N/A   Clear
9:12 PM 35.4 °F - 29.7 °F 80% 30.35 in 10.0 mi Calm Calm - N/A   Clear
9:32 PM 35.2 °F - 31.1 °F 85% 30.36 in 10.0 mi Calm Calm - N/A   Clear
9:52 PM 36.0 °F - 33.3 °F 90% 30.36 in 10.0 mi Calm Calm - N/A   Clear
10:12 PM 32.7 °F - 30.6 °F 92% 30.37 in 10.0 mi Calm Calm - N/A   Clear
10:32 PM 31.3 °F - 28.2 °F 88% 30.37 in 10.0 mi Calm Calm - N/A   Clear
10:52 PM 31.8 °F - 29.1 °F 90% 30.38 in 10.0 mi Calm Calm - N/A   Clear
11:12 PM 32.9 °F - 30.2 °F 90% 30.38 in 10.0 mi Calm Calm - N/A   Mostly Cloudy
11:32 PM 33.8 °F - 32.0 °F 93% 30.38 in 10.0 mi Calm Calm - N/A   Overcast
11:52 PM 36.0 °F - 33.4 °F 91% 30.39 in 10.0 mi Calm Calm - N/A   Overcast